小惑星A/2019 G3

A/2019 G3

English version
Home page
Updated on May 20, 2019

---------------------------------------------------------------------

・ プロフィール

発見日 2019年4月4日
発見光度 21.6等
発見者 Pan-STARRS 1 telescope (Haleakala)

・ 軌道要素

Epoch 2018 Nov. 18.0 TT = JDT 2458440.5
T 2018 Dec. 3.45058 TT                                  MPCW
q   2.8542955            (2000.0)            P               Q
n   0.01383993     Peri.  161.83849     -0.39509584     -0.86810406
a  17.1809338      Node    49.75946     -0.88409097     +0.44818277
e   0.8338684      Incl.  156.81802     -0.24956448     -0.21337187
P  71.21
From 23 observations 2019 Apr. 4-May 6, mean residual 0".3.

・ 光度変化

        H = 17.0  G = 0.15

---------------------------------------------------------------------

軌道要素はM.P.E.C. 2019-J142に掲載されたものです。
光度グラフはComet for Windowsで作成したものです。

---------------------------------------------------------------------

Copyright(C) Seiichi Yoshida (comet@aerith.net). All rights reserved.